This demonstration page uses our WeatherBlox Daily Observations layout. Learn more.

Left ArrowRight Arrow

Hourly Observations for October 27, 2018

Temp ( °F °C ) Dew Point ( °F °C ) Humidity (%) Winds ( mph kmh ) Pressure ( in mb ) Visibility ( mi km ) Precip ( " mm )
12:57 am 00:57 Clear 50 10 38 3.3 63 63 W 6 9 29.90 1013 10 16 0.00 0.00
1:57 am 01:57 Clear 47 8.3 36 2.2 66 66 WNW 6 9 29.91 1013 10 16 0.00 0.00
2:57 am 02:57 Clear 44 6.7 36 2.2 73 73 WNW 6 9 29.92 1013 10 16 0.00 0.00
3:57 am 03:57 Clear 44 6.7 36 2.2 73 73 WNW 6 9 29.92 1013 10 16 0.00 0.00
4:57 am 04:57 Clear 43 6.1 35 1.7 74 74 NW 6 9 29.92 1013 10 16 0.00 0.00
5:57 am 05:57 Clear 42 5.6 34 1.1 73 73 WNW 5 7 29.92 1013 10 16 0.00 0.00
6:57 am 06:57 Clear 39 3.9 35 1.7 86 86 Calm 29.93 1014 10 16 0.00 0.00
7:57 am 07:57 Clear 41 5 35 1.7 79 79 Calm 29.94 1014 10 16 0.00 0.00
8:57 am 08:57 Sunny 41 5 37 2.8 86 86 Calm 29.96 1014 10 16 0.00 0.00
9:57 am 09:57 Sunny 50 10 40 4.4 68 68 Calm 29.94 1014 10 16 0.00 0.00
11:57 am 11:57 Sunny 64 17.8 41 5 43 43 SW 14 22 29.90 1013 10 16 0.00 0.00
12:57 pm 12:57 Sunny 68 20 38 3.3 33 33 SW 13 20 29.88 1012 10 16 0.00 0.00
1:57 pm 13:57 Sunny 72 22.2 41 5 33 33 WSW 13 20 29.83 1010 10 16 0.00 0.00
2:57 pm 14:57 Sunny 74 23.3 42 5.6 32 32 SW 14 22 29.80 1009 10 16 0.00 0.00
3:57 pm 15:57 Sunny 75 23.9 41 5 29 29 SW 16 26 29.78 1009 10 16 0.00 0.00
4:57 pm 16:57 Sunny 76 24.4 42 5.6 30 30 SW 13 20 29.78 1008 10 16 0.00 0.00
5:57 pm 17:57 Sunny 73 22.8 42 5.6 33 33 SW 6 9 29.78 1009 10 16 0.00 0.00
7:57 pm 19:57 Mostly Cloudy 64 17.8 44 6.7 48 48 N 32 52 29.88 1012 10 16 0.00 0.00
8:09 pm 20:09 Cloudy 63 17 45 7 52 52 N 30 48 29.85 1011 10 16 0.00 0.00
8:57 pm 20:57 Clear 60 15.6 44 6.7 56 56 N 23 37 29.94 1014 10 16 0.00 0.00
9:57 pm 21:57 Partly Cloudy 59 15 44 6.7 58 58 N 20 31 29.95 1014 10 16 0.00 0.03
10:57 pm 22:57 Mostly Clear 57 13.9 43 6.1 60 60 N 22 35 29.98 1015 10 16 0.00 0.00
11:57 pm 23:57 Clear 55 12.8 43 6.1 64 64 NNW 12 19 30.01 1016 10 16 0.00 0.03

Powered by AerisWeather